Regional Weather Roundup
Issued by NWS Grand Forks, ND

Home | Current Version | Previous Version | Graphics & Text | Print | Product List | Glossary On
Versions: 1 2 3 4 5 6 7 8 9 10 11 12 13 14 15 16 17 18 19 20 21 22 23 24 25 26 27 28 29 30 31 32 33 34 35 36 37 38 39 40 41 42 43 44 45 46 47 48 49 50
937
ASUS43 KFGF 292210
RWRFGF
PRAIRIE TO PINES  WEATHER ROUNDUP
NATIONAL WEATHER SERVICE EASTERN NORTH DAKOTA/GRAND FORKS ND
500 PM CDT SAT APR 29 2017

 **SATELLITE DATA USED TO AUGMENT SKY COVER AT AUTOMATED STATIONS**
 *****  WEATHER ACROSS EASTERN NORTH DAKOTA  *****

CITY           SKY/WX    TMP DP  RH WIND       PRES   REMARKS
GRAND FORKS    FAIR      60  24  25 S5        30.29F
GRAND FRKS AFB FAIR      59  20  22 SE6       30.29F
DEVILS LAKE    FAIR      59  16  18 SE7       30.26F
FARGO          FAIR      61  19  19 N6        30.27F
WAHPETON ARPT  FAIR      55  23  28 NE7       30.28F
$$

 ***** WEATHER ACROSS CENTRAL AND WESTERN NORTH DAKOTA  *****

CITY           SKY/WX    TMP DP  RH WIND       PRES   REMARKS
BISMARCK       FAIR      62  18  18 E5        30.23F
MINOT          CLOUDY    63  26  24 SW13      30.18F
JAMESTOWN      FAIR      59  20  22 SE6       30.24F
MINOT AFB      FAIR      64  29  26 SW15      30.17F
GARRISON         N/A     61  22  22 S9        30.19F
WILLISTON      FAIR      63  32  31 W7        30.17F
DICKINSON      FAIR      59  17  19 CALM      30.17F
HETTINGER      FAIR      57  19  22 NW5       30.22F
$$

 *****  OTHER AIRPORT OBSERVATIONS IN OUR AREA  *****

CITY           SKY/WX    TMP DP  RH WIND       PRES   REMARKS
WALHALLA       NOT AVBL
GRAFTON AIRPOR FAIR      59  21  23 S12       30.31S
VALLEY CITY AR FAIR      59  19  21 CALM      30.27F
CANDO          NOT AVBL
CAVALIER APRT  FAIR      61  27  27 S12       30.27S
GWINNER        CLEAR     59  23  25 MISG      30.26F
SHEYENNE NWR     N/A     59  20  22 E6        29.95S
ROLLA          FAIR      61  23  23 SW16      30.21F
 ***** THE ABOVE OBSERVATIONS ARE NON NWS ARE NOT QUALITY
       CONTROLLED AND MAY MIS-REPORT RAIN FOR SNOW...
$$

  *****  WEATHER ACROSS NORTHERN MINNESOTA  *****

CITY           SKY/WX    TMP DP  RH WIND       PRES   REMARKS
FLAG ISLAND    FAIR      50  10  20 SE6       30.32R
WARROAD        FAIR      50  25  37 E9        30.33S
ROSEAU         FAIR      57  27  30 SW3       30.31S
HALLOCK        FAIR      59  16  18 SW7       30.29F
THF RVR FALLS  FAIR      57  17  21 E6        30.31F
BAUDETTE       FAIR      59  18  20 NE5       30.31F
WASKISH        FAIR      54  27  35 W7        30.32F
CROOKSTON      FAIR      57  21  24 CALM      30.30F
STEPHEN NDAWN    N/A     59  23  25 S7          N/A
GREENBUSH NDAW   N/A     57  25  28 S3          N/A
$$
  *****  WEATHER ACROSS CENTRAL AND WEST MINNESOTA  *****

CITY           SKY/WX    TMP DP  RH WIND       PRES   REMARKS
FOSSTON        FAIR      61  21  21 S5        30.30F
BEMIDJI        FAIR      56  23  27 E3        30.30F
PARK RAPIDS    FAIR      57  16  20 E9        30.27F
ELBOW LAKE     FAIR      55  25  30 NE9       30.27F
WADENA         FAIR      55  25  30 NE9       30.26F
DETROIT LAKES  FAIR      57  23  26 NE7       30.28F
MOORHEAD       FAIR      57  19  23 CALM      30.29F
FERGUS FALLS   FAIR      55  23  28 NE8       30.26F
MORRIS MN      FAIR      57  25  28 NE10G17   30.25F
STAPLES        FAIR      55  19  24 N9        30.26F
$$
  *****  WEATHER ELSEWHERE ACROSS MINNESOTA  *****

CITY           SKY/WX    TMP DP  RH WIND       PRES   REMARKS
DULUTH         FAIR      47  13  25 E15       30.34F
INTRNTL FALLS  FAIR      54  17  23 E6        30.33F
ELY            FAIR      52   9  17 E3        30.34S
CLOQUET        FAIR      48   9  20 E12       30.33F
WHEATON        FAIR      55  19  24 NE7       30.28F
BRAINERD       FAIR      55  21  26 NE6       30.28F
HIBBING        FAIR      53  16  23 NE3       30.32F
ALEXANDRIA     FAIR      55  21  26 NE12      30.26F
SAINT CLOUD    FAIR      54  20  26 NE15G21   30.24F
MINNEAPOLIS    CLOUDY    55  22  27 NE17      30.22F
$$

  *****  WEATHER ACROSS SOUTH DAKOTA  *****

CITY           SKY/WX    TMP DP  RH WIND       PRES   REMARKS
SIOUX FALLS    CLOUDY    53  23  31 NE23G30   30.12F
BROOKINGS      NOT AVBL
WATERTOWN      FAIR      53  25  33 NE15      30.21F
HURON          FAIR      57  21  24 NE20G25   30.18F
SISSETON         N/A     57  21  24 NE8       30.24F
ABERDEEN       FAIR      59  16  18 NE10      30.24F
MITCHELL       FAIR      56  19  23 NE18G26   30.16F
PIERRE         FAIR      59  16  18 NE16G23   30.17F
MOBRIDGE       FAIR      62  14  15 VRB6      30.19F
RAPID CITY     FAIR      54  18  24 E8G20     30.19F
$$

  *****  SOME WEATHER IN NEARBY STATES *****

CITY           SKY/WX    TMP DP  RH WIND       PRES   REMARKS
GLASGOW MT     CLOUDY    58  31  35 W7        30.14F
GREAT FALLS MT PTSUNNY   56  25  30 W8        30.09F
CHEYENNE WY    FLURRIES  32  15  49 NE13G22   30.18R WCI  22
SCOTTSBLUFF NE FAIR      45  25  45 N15       30.20S
OMAHA NE       CLOUDY    46  37  71 N18       29.97F
DES MOINES IA  CLOUDY    44  38  79 NE20G37   29.95F
DAVENPORT IA   RAIN      39  37  92 NE30G39   30.06F FOG
CHICAGO IL     HVY RAIN  40  37  89 N17       30.14R FOG
EAU CLAIRE WI  FAIR      54  25  32 NE13G22   30.21F
LA CROSSE WI   PTSUNNY   51  28  41 NE13      30.19F
$$

  *****  SOME NATIONAL WEATHER *****

CITY           SKY/WX    TMP DP  RH WIND       PRES   REMARKS
LA GUARDIA NY  PTSUNNY   84  57  39 W13G30    29.97S
RALEIGH NC     PTSUNNY   87  69  54 S12       30.13S HX  91
ATLANTA GA     PTSUNNY   86  64  47 S15G22    30.07F
NEW ORLEANS LA CLOUDY    83  74  74 SE18G29   29.89S
OKLAHOMA CITY  LGT RAIN  53  50  89 NW21      29.61F
ALBUQUERQUE NM PTSUNNY   47  29  49 N7        29.93S
SALT LAKE CITY PTSUNNY   55  27  34 NW16      30.19S
LOS ANGELES CA FAIR      78  29  16 W15       30.00S
BOISE ID       FAIR      60  26  27 N10       30.20F
SEATTLE WA     CLOUDY    55  42  61 SW5       30.18S
$$

*** WEATHER ACROSS MANITOBA...SASKATCHEWAN AND ONTARIO ***
                ***ONTARIO***

CITY           SKY/WX    TMP DP  RH WIND       PRES   REMARKS
GERALDTON      SUNNY     48  19  32 VRB5      30.35R
THUNDER BAY    NOT AVBL
SIOUX LOOKOUT  MOSUNNY   48  10  21 VRB2      30.35R
TORONTO        PTSUNNY   52  32  46 N15       30.18R
BIG TROUT LK   SUNNY     37  14  38 S3        30.36R
PICKLE LAKE    SUNNY     48  14  25 VRB2      30.32R
DRYDEN         SUNNY     50   9  18 SW7       30.34R
KENORA         PTSUNNY   50   9  18 SE6       30.33R
$$
                *** MANITOBA***

CITY           SKY/WX    TMP DP  RH WIND       PRES   REMARKS
BRANDON        PTSUNNY   63  34  34 W14G24    30.16F
DAUPHIN        MOSUNNY   61  23  23 W10G21    30.13S
ISLAND LAKE    MOSUNNY   48  19  32 N5        30.27F
PILOT MOUND      N/A     63  19  19 SW13G18     N/A
THE PAS        CLOUDY    46  23  39 SE18G29   30.15F
THOMPSON       MOSUNNY   45  21  39 VRB5      30.24F
WINNIPEG       MOSUNNY   63  18  17 S15G22    30.24S
LYNN LAKE      SUNNY     46  19  34 SE12      30.16F
CHURCHILL      PTSUNNY   19   7  58 E5        30.34F WCI  13
GILLAM         PTSUNNY   37  10  32 S5        30.32F
$$
                ***SASKATCHEWAN***

CITY           SKY/WX    TMP DP  RH WIND       PRES   REMARKS
ESTEVAN        PTSUNNY   59  28  31 SW14G20   30.17F
KINDERSLEY     PTSUNNY   55  25  30 S8        30.04F
LLOYDMINSTER   PTSUNNY   55  30  38 S10       30.02F
PRINCE ALBERT  MOSUNNY   54  28  37 W7        30.10F
REGINA         PTSUNNY   59  25  27 W15G26    30.15F
YORKTON        MOSUNNY   55  27  33 W15G24    30.14S
N. BATTLEFORD  SUNNY     55  21  26 VRB7      30.08F
LA RONGE       PTSUNNY   54  23  30 SE14      30.09F
SASKATOON      PTSUNNY   54  19  26 W3        30.10F
SWIFT CURRENT  PTSUNNY   54  28  37 S9        30.08F
$$
NOTE: THESE ARE AUTOMATED STATIONS WITH LIMITED QUALITY CONTROL
      "FAIR" INDICATES FEW OR NO CLOUDS BELOW 12,000 FEET WITH NO
      SIGNIFICANT WEATHER AND/OR OBSTRUCTIONS TO VISIBILITY.
      SKY/WX - SKY CONDITION AND SIGNIFICANT WEATHER.
      TMP - AIR TEMPERATURE.    DP   - DEWPOINT TEMPERATURE.
      RH  - RELATIVE HUMIDITY.  PRES - PRESSURE.
      HX  - HEAT INDEX.         WCI  - WIND CHILL INDEX.
$




USA.gov is the U.S. government's official web portal to all federal, state and local government web resources and services.